Location: Bukit Nyuki
(2.5885°N, 113.7476°E)
Time: 15:40:59
(UTC+00:00)

ISS - Pass Details

Date: 18 May 2021
Orbit: 417 x 422 km, 51.6° (Epoch: 20 June)

Event Time Altitude Azimuth Distance (km) Brightness Sun altitude
Exits shadow 21:21:06 10° 303° (WNW) 1,471 -1.3 -13.3°
Maximum altitude 21:24:10 36° 235° (SW) 681 -3.2 -12.6°
Drops below altitude 10° 21:27:18 10° 166° (SSE) 1,499 -1.0 -11.8°
Sets 21:29:30 0° 157° (SSE) 2,364 0.1 -11.3°
